Вернуться в каталог

STARLINK-37175

АктивенСвязьSSO
NORAD 68401·PAYLOAD·🇺🇸 United States

Запущен Mar 26, 2026 с Vandenberg Space Force Base

Loading…

Ближайшие Пролёты (ближайшие 24 часа)

TLE

СвежийSource: CelesTrak SupGP

Эпоха: Sep 14, 2026, 23:07 UTC

1 68401C 26063X   26257.96368056 -.00031269  00000+0 -97023-3 0  2574
2 68401  97.2864  38.8649 0001198  94.2039  55.4705 15.33469359    16

Отслеживайте STARLINK-37175 в реальном времени с AllMySat

Download on the App Store